owner,sensor,date,latitude,longitude,air_temperature,qcFlag 
COMPS,ioos:station:USF.COMPS:ANM:1,2010-02-01T00:00:00Z,27.5400,-82.7400,12.83,1111122 
COMPS,ioos:station:USF.COMPS:ANM:1,2010-02-01T00:06:00Z,27.5400,-82.7400,12.77,1111122 
COMPS,ioos:station:USF.COMPS:ANM:1,2010-02-01T00:12:00Z,27.5400,-82.7400,12.67,1111122 
COMPS,ioos:station:USF.COMPS:ANM:1,2010-02-01T00:18:00Z,27.5400,-82.7400,12.7,1111122 
COMPS,ioos:station:USF.COMPS:ANM:1,2010-02-01T00:24:00Z,27.5400,-82.7400,12.68,1111122 
COMPS,ioos:station:USF.COMPS:ANM:1,2010-02-01T00:30:00Z,27.5400,-82.7400,12.66,1111122 
COMPS,ioos:station:USF.COMPS:ANM:1,2010-02-01T00:36:00Z,27.5400,-82.7400,12.61,1111122 
COMPS,ioos:station:USF.COMPS:ANM:1,2010-02-01T00:42:00Z,27.5400,-82.7400,12.56,1111122 
COMPS,ioos:station:USF.COMPS:ANM:1,2010-02-01T00:48:00Z,27.5400,-82.7400,12.5,1111122 
COMPS,ioos:station:USF.COMPS:ANM:1,2010-02-01T00:54:00Z,27.5400,-82.7400,12.4,1111122 
COMPS,ioos:station:USF.COMPS:ANM:1,2010-02-01T01:00:00Z,27.5400,-82.7400,12.38,1111122 
COMPS,ioos:station:USF.COMPS:ANM:1,2010-02-01T01:06:00Z,27.5400,-82.7400,12.35,1111122 
COMPS,ioos:station:USF.COMPS:ANM:1,2010-02-01T01:12:00Z,27.5400,-82.7400,12.27,1111122 
COMPS,ioos:station:USF.COMPS:ANM:1,2010-02-01T01:18:00Z,27.5400,-82.7400,12.33,1111122 
COMPS,ioos:station:USF.COMPS:ANM:1,2010-02-01T01:24:00Z,27.5400,-82.7400,12.27,1111122 
COMPS,ioos:station:USF.COMPS:ANM:1,2010-02-01T01:30:00Z,27.5400,-82.7400,12.27,1111122 
COMPS,ioos:station:USF.COMPS:ANM:1,2010-02-01T01:36:00Z,27.5400,-82.7400,12.2,1111122 
COMPS,ioos:station:USF.COMPS:ANM:1,2010-02-01T01:42:00Z,27.5400,-82.7400,12.13,1111122 
COMPS,ioos:station:USF.COMPS:ANM:1,2010-02-01T01:48:00Z,27.5400,-82.7400,12.12,1111122 
COMPS,ioos:station:USF.COMPS:ANM:1,2010-02-01T01:54:00Z,27.5400,-82.7400,12.11,1111122 
COMPS,ioos:station:USF.COMPS:ANM:1,2010-02-01T02:00:00Z,27.5400,-82.7400,12.01,1111122 
COMPS,ioos:station:USF.COMPS:ANM:1,2010-02-01T02:06:00Z,27.5400,-82.7400,12.04,1111122 
COMPS,ioos:station:USF.COMPS:ANM:1,2010-02-01T02:12:00Z,27.5400,-82.7400,12.06,1111122 
COMPS,ioos:station:USF.COMPS:ANM:1,2010-02-01T02:18:00Z,27.5400,-82.7400,12.1,1111122 
COMPS,ioos:station:USF.COMPS:ANM:1,2010-02-01T02:24:00Z,27.5400,-82.7400,12.03,1111122 
COMPS,ioos:station:USF.COMPS:ANM:1,2010-02-01T02:30:00Z,27.5400,-82.7400,11.99,1111122 
COMPS,ioos:station:USF.COMPS:ANM:1,2010-02-01T02:36:00Z,27.5400,-82.7400,11.87,1111122 
COMPS,ioos:station:USF.COMPS:ANM:1,2010-02-01T02:42:00Z,27.5400,-82.7400,11.86,1111122 
COMPS,ioos:station:USF.COMPS:ANM:1,2010-02-01T02:48:00Z,27.5400,-82.7400,11.8,1111122 
COMPS,ioos:station:USF.COMPS:ANM:1,2010-02-01T02:54:00Z,27.5400,-82.7400,11.79,1111122 
COMPS,ioos:station:USF.COMPS:ANM:1,2010-02-01T03:00:00Z,27.5400,-82.7400,11.82,1111122 
COMPS,ioos:station:USF.COMPS:ANM:1,2010-02-01T03:06:00Z,27.5400,-82.7400,11.65,1111122 
COMPS,ioos:station:USF.COMPS:ANM:1,2010-02-01T03:12:00Z,27.5400,-82.7400,11.61,1111122 
COMPS,ioos:station:USF.COMPS:ANM:1,2010-02-01T03:18:00Z,27.5400,-82.7400,11.58,1111122 
COMPS,ioos:station:USF.COMPS:ANM:1,2010-02-01T03:24:00Z,27.5400,-82.7400,11.62,1111122 
COMPS,ioos:station:USF.COMPS:ANM:1,2010-02-01T03:30:00Z,27.5400,-82.7400,11.6,1111122 
COMPS,ioos:station:USF.COMPS:ANM:1,2010-02-01T03:36:00Z,27.5400,-82.7400,11.64,1111122 
COMPS,ioos:station:USF.COMPS:ANM:1,2010-02-01T03:42:00Z,27.5400,-82.7400,11.55,1111122 
COMPS,ioos:station:USF.COMPS:ANM:1,2010-02-01T03:48:00Z,27.5400,-82.7400,11.47,1111122 
COMPS,ioos:station:USF.COMPS:ANM:1,2010-02-01T03:54:00Z,27.5400,-82.7400,11.37,1111122 
COMPS,ioos:station:USF.COMPS:ANM:1,2010-02-01T04:00:00Z,27.5400,-82.7400,11.37,1111122 
COMPS,ioos:station:USF.COMPS:ANM:1,2010-02-01T04:06:00Z,27.5400,-82.7400,11.26,1111122 
COMPS,ioos:station:USF.COMPS:ANM:1,2010-02-01T04:12:00Z,27.5400,-82.7400,11.21,1111122 
COMPS,ioos:station:USF.COMPS:ANM:1,2010-02-01T04:18:00Z,27.5400,-82.7400,11.22,1111122 
COMPS,ioos:station:USF.COMPS:ANM:1,2010-02-01T04:24:00Z,27.5400,-82.7400,11.16,1111122 
COMPS,ioos:station:USF.COMPS:ANM:1,2010-02-01T04:30:00Z,27.5400,-82.7400,11.2,1111122 
COMPS,ioos:station:USF.COMPS:ANM:1,2010-02-01T04:36:00Z,27.5400,-82.7400,11.18,1111122 
COMPS,ioos:station:USF.COMPS:ANM:1,2010-02-01T04:42:00Z,27.5400,-82.7400,11.15,1111122 
COMPS,ioos:station:USF.COMPS:ANM:1,2010-02-01T04:48:00Z,27.5400,-82.7400,11.14,1111122 
COMPS,ioos:station:USF.COMPS:ANM:1,2010-02-01T04:54:00Z,27.5400,-82.7400,11.09,1111122 
COMPS,ioos:station:USF.COMPS:ANM:1,2010-02-01T05:00:00Z,27.5400,-82.7400,11.19,1111122 
COMPS,ioos:station:USF.COMPS:ANM:1,2010-02-01T05:06:00Z,27.5400,-82.7400,11.19,1111122 
COMPS,ioos:station:USF.COMPS:ANM:1,2010-02-01T05:12:00Z,27.5400,-82.7400,11.19,1111122 
COMPS,ioos:station:USF.COMPS:ANM:1,2010-02-01T05:18:00Z,27.5400,-82.7400,11.25,1111122 
COMPS,ioos:station:USF.COMPS:ANM:1,2010-02-01T05:24:00Z,27.5400,-82.7400,11.24,1111122 
COMPS,ioos:station:USF.COMPS:ANM:1,2010-02-01T05:30:00Z,27.5400,-82.7400,11.26,1111122 
COMPS,ioos:station:USF.COMPS:ANM:1,2010-02-01T05:36:00Z,27.5400,-82.7400,11.17,1111122 
COMPS,ioos:station:USF.COMPS:ANM:1,2010-02-01T05:42:00Z,27.5400,-82.7400,11.25,1111122 
COMPS,ioos:station:USF.COMPS:ANM:1,2010-02-01T05:48:00Z,27.5400,-82.7400,11.23,1111122 
COMPS,ioos:station:USF.COMPS:ANM:1,2010-02-01T05:54:00Z,27.5400,-82.7400,11.25,1111122 
COMPS,ioos:station:USF.COMPS:ANM:1,2010-02-01T06:00:00Z,27.5400,-82.7400,11.26,1111122 
COMPS,ioos:station:USF.COMPS:ANM:1,2010-02-01T06:06:00Z,27.5400,-82.7400,11.33,1111122 
COMPS,ioos:station:USF.COMPS:ANM:1,2010-02-01T06:12:00Z,27.5400,-82.7400,11.43,1111122 
COMPS,ioos:station:USF.COMPS:ANM:1,2010-02-01T06:18:00Z,27.5400,-82.7400,11.43,1111122 
COMPS,ioos:station:USF.COMPS:ANM:1,2010-02-01T06:24:00Z,27.5400,-82.7400,11.36,1111122 
COMPS,ioos:station:USF.COMPS:ANM:1,2010-02-01T06:30:00Z,27.5400,-82.7400,11.48,1111122 
COMPS,ioos:station:USF.COMPS:ANM:1,2010-02-01T06:36:00Z,27.5400,-82.7400,11.42,1111122 
COMPS,ioos:station:USF.COMPS:ANM:1,2010-02-01T06:42:00Z,27.5400,-82.7400,11.4,1111122 
COMPS,ioos:station:USF.COMPS:ANM:1,2010-02-01T06:48:00Z,27.5400,-82.7400,11.32,1111122 
COMPS,ioos:station:USF.COMPS:ANM:1,2010-02-01T06:54:00Z,27.5400,-82.7400,11.32,1111122 
COMPS,ioos:station:USF.COMPS:ANM:1,2010-02-01T07:00:00Z,27.5400,-82.7400,11.41,1111122 
COMPS,ioos:station:USF.COMPS:ANM:1,2010-02-01T07:06:00Z,27.5400,-82.7400,11.33,1111122 
COMPS,ioos:station:USF.COMPS:ANM:1,2010-02-01T07:12:00Z,27.5400,-82.7400,11.37,1111122 
COMPS,ioos:station:USF.COMPS:ANM:1,2010-02-01T07:18:00Z,27.5400,-82.7400,11.29,1111122 
COMPS,ioos:station:USF.COMPS:ANM:1,2010-02-01T07:24:00Z,27.5400,-82.7400,11.37,1111122 
COMPS,ioos:station:USF.COMPS:ANM:1,2010-02-01T07:30:00Z,27.5400,-82.7400,11.34,1111122 
COMPS,ioos:station:USF.COMPS:ANM:1,2010-02-01T07:36:00Z,27.5400,-82.7400,11.46,1111122 
COMPS,ioos:station:USF.COMPS:ANM:1,2010-02-01T07:42:00Z,27.5400,-82.7400,11.51,1111122 
COMPS,ioos:station:USF.COMPS:ANM:1,2010-02-01T07:48:00Z,27.5400,-82.7400,11.47,1111122 
COMPS,ioos:station:USF.COMPS:ANM:1,2010-02-01T07:54:00Z,27.5400,-82.7400,11.44,1111122 
COMPS,ioos:station:USF.COMPS:ANM:1,2010-02-01T08:00:00Z,27.5400,-82.7400,11.45,1111122 
COMPS,ioos:station:USF.COMPS:ANM:1,2010-02-01T08:06:00Z,27.5400,-82.7400,11.46,1111122 
COMPS,ioos:station:USF.COMPS:ANM:1,2010-02-01T08:12:00Z,27.5400,-82.7400,11.43,1111122 
COMPS,ioos:station:USF.COMPS:ANM:1,2010-02-01T08:18:00Z,27.5400,-82.7400,11.5,1111122 
COMPS,ioos:station:USF.COMPS:ANM:1,2010-02-01T08:24:00Z,27.5400,-82.7400,11.61,1111122 
COMPS,ioos:station:USF.COMPS:ANM:1,2010-02-01T08:30:00Z,27.5400,-82.7400,11.62,1111122 
COMPS,ioos:station:USF.COMPS:ANM:1,2010-02-01T08:36:00Z,27.5400,-82.7400,11.69,1111122 
COMPS,ioos:station:USF.COMPS:ANM:1,2010-02-01T08:42:00Z,27.5400,-82.7400,11.48,1111122 
COMPS,ioos:station:USF.COMPS:ANM:1,2010-02-01T08:48:00Z,27.5400,-82.7400,11.58,1111122 
COMPS,ioos:station:USF.COMPS:ANM:1,2010-02-01T08:54:00Z,27.5400,-82.7400,11.74,1111122 
COMPS,ioos:station:USF.COMPS:ANM:1,2010-02-01T09:00:00Z,27.5400,-82.7400,11.92,1111122 
COMPS,ioos:station:USF.COMPS:ANM:1,2010-02-01T09:06:00Z,27.5400,-82.7400,11.96,1111122 
COMPS,ioos:station:USF.COMPS:ANM:1,2010-02-01T09:12:00Z,27.5400,-82.7400,12.02,1111122 
COMPS,ioos:station:USF.COMPS:ANM:1,2010-02-01T09:18:00Z,27.5400,-82.7400,12.06,1111122 
COMPS,ioos:station:USF.COMPS:ANM:1,2010-02-01T09:24:00Z,27.5400,-82.7400,12.04,1111122 
COMPS,ioos:station:USF.COMPS:ANM:1,2010-02-01T09:30:00Z,27.5400,-82.7400,12.07,1111122 
COMPS,ioos:station:USF.COMPS:ANM:1,2010-02-01T09:36:00Z,27.5400,-82.7400,12.11,1111122 
COMPS,ioos:station:USF.COMPS:ANM:1,2010-02-01T09:42:00Z,27.5400,-82.7400,12.11,1111122 
COMPS,ioos:station:USF.COMPS:ANM:1,2010-02-01T09:48:00Z,27.5400,-82.7400,12.12,1111122 
COMPS,ioos:station:USF.COMPS:ANM:1,2010-02-01T09:54:00Z,27.5400,-82.7400,12.2,1111122 
COMPS,ioos:station:USF.COMPS:ANM:1,2010-02-01T10:00:00Z,27.5400,-82.7400,12.2,1111122 
COMPS,ioos:station:USF.COMPS:ANM:1,2010-02-01T10:06:00Z,27.5400,-82.7400,12.36,1111122 
COMPS,ioos:station:USF.COMPS:ANM:1,2010-02-01T10:12:00Z,27.5400,-82.7400,12.36,1111122 
COMPS,ioos:station:USF.COMPS:ANM:1,2010-02-01T10:18:00Z,27.5400,-82.7400,12.41,1111122 
COMPS,ioos:station:USF.COMPS:ANM:1,2010-02-01T10:24:00Z,27.5400,-82.7400,12.42,1111122 
COMPS,ioos:station:USF.COMPS:ANM:1,2010-02-01T10:30:00Z,27.5400,-82.7400,12.46,1111122 
COMPS,ioos:station:USF.COMPS:ANM:1,2010-02-01T10:36:00Z,27.5400,-82.7400,12.52,1111122 
COMPS,ioos:station:USF.COMPS:ANM:1,2010-02-01T10:42:00Z,27.5400,-82.7400,12.61,1111122 
COMPS,ioos:station:USF.COMPS:ANM:1,2010-02-01T10:48:00Z,27.5400,-82.7400,12.67,1111122 
COMPS,ioos:station:USF.COMPS:ANM:1,2010-02-01T10:54:00Z,27.5400,-82.7400,12.68,1111122 
COMPS,ioos:station:USF.COMPS:ANM:1,2010-02-01T11:00:00Z,27.5400,-82.7400,12.67,1111122 
COMPS,ioos:station:USF.COMPS:ANM:1,2010-02-01T11:06:00Z,27.5400,-82.7400,12.64,1111122 
COMPS,ioos:station:USF.COMPS:ANM:1,2010-02-01T11:12:00Z,27.5400,-82.7400,12.71,1111122 
COMPS,ioos:station:USF.COMPS:ANM:1,2010-02-01T11:18:00Z,27.5400,-82.7400,12.82,1111122 
COMPS,ioos:station:USF.COMPS:ANM:1,2010-02-01T11:24:00Z,27.5400,-82.7400,12.83,1111122 
COMPS,ioos:station:USF.COMPS:ANM:1,2010-02-01T11:30:00Z,27.5400,-82.7400,12.92,1111122 
COMPS,ioos:station:USF.COMPS:ANM:1,2010-02-01T11:36:00Z,27.5400,-82.7400,12.97,1111122 
COMPS,ioos:station:USF.COMPS:ANM:1,2010-02-01T11:42:00Z,27.5400,-82.7400,13.11,1111122 
COMPS,ioos:station:USF.COMPS:ANM:1,2010-02-01T11:48:00Z,27.5400,-82.7400,13.17,1111122 
COMPS,ioos:station:USF.COMPS:ANM:1,2010-02-01T11:54:00Z,27.5400,-82.7400,13.21,1111122 
COMPS,ioos:station:USF.COMPS:ANM:1,2010-02-01T12:00:00Z,27.5400,-82.7400,13.19,1111122 
COMPS,ioos:station:USF.COMPS:ANM:1,2010-02-01T12:06:00Z,27.5400,-82.7400,13.33,1111122 
COMPS,ioos:station:USF.COMPS:ANM:1,2010-02-01T12:12:00Z,27.5400,-82.7400,13.4,1111122 
COMPS,ioos:station:USF.COMPS:ANM:1,2010-02-01T12:18:00Z,27.5400,-82.7400,13.31,1111122 
COMPS,ioos:station:USF.COMPS:ANM:1,2010-02-01T12:24:00Z,27.5400,-82.7400,13.38,1111122 
COMPS,ioos:station:USF.COMPS:ANM:1,2010-02-01T12:30:00Z,27.5400,-82.7400,13.51,1111122 
COMPS,ioos:station:USF.COMPS:ANM:1,2010-02-01T12:36:00Z,27.5400,-82.7400,13.58,1111122 
COMPS,ioos:station:USF.COMPS:ANM:1,2010-02-01T12:42:00Z,27.5400,-82.7400,13.66,1111122 
COMPS,ioos:station:USF.COMPS:ANM:1,2010-02-01T12:48:00Z,27.5400,-82.7400,13.7,1111122 
COMPS,ioos:station:USF.COMPS:ANM:1,2010-02-01T12:54:00Z,27.5400,-82.7400,13.74,1111122 
COMPS,ioos:station:USF.COMPS:ANM:1,2010-02-01T13:00:00Z,27.5400,-82.7400,13.73,1111122 
COMPS,ioos:station:USF.COMPS:ANM:1,2010-02-01T13:06:00Z,27.5400,-82.7400,13.79,1111122 
COMPS,ioos:station:USF.COMPS:ANM:1,2010-02-01T13:12:00Z,27.5400,-82.7400,13.86,1111122 
COMPS,ioos:station:USF.COMPS:ANM:1,2010-02-01T13:18:00Z,27.5400,-82.7400,13.96,1111122 
COMPS,ioos:station:USF.COMPS:ANM:1,2010-02-01T13:24:00Z,27.5400,-82.7400,14.0,1111122 
COMPS,ioos:station:USF.COMPS:ANM:1,2010-02-01T13:30:00Z,27.5400,-82.7400,14.01,1111122 
COMPS,ioos:station:USF.COMPS:ANM:1,2010-02-01T13:36:00Z,27.5400,-82.7400,14.05,1111122 
COMPS,ioos:station:USF.COMPS:ANM:1,2010-02-01T13:42:00Z,27.5400,-82.7400,14.05,1111122 
COMPS,ioos:station:USF.COMPS:ANM:1,2010-02-01T13:48:00Z,27.5400,-82.7400,14.14,1111122 
COMPS,ioos:station:USF.COMPS:ANM:1,2010-02-01T13:54:00Z,27.5400,-82.7400,14.14,1111122 
COMPS,ioos:station:USF.COMPS:ANM:1,2010-02-01T14:00:00Z,27.5400,-82.7400,14.14,1111122 
COMPS,ioos:station:USF.COMPS:ANM:1,2010-02-01T14:06:00Z,27.5400,-82.7400,14.13,1111122 
COMPS,ioos:station:USF.COMPS:ANM:1,2010-02-01T14:12:00Z,27.5400,-82.7400,14.07,1111122 
COMPS,ioos:station:USF.COMPS:ANM:1,2010-02-01T14:18:00Z,27.5400,-82.7400,14.1,1111122 
COMPS,ioos:station:USF.COMPS:ANM:1,2010-02-01T14:24:00Z,27.5400,-82.7400,14.13,1111122 
COMPS,ioos:station:USF.COMPS:ANM:1,2010-02-01T14:30:00Z,27.5400,-82.7400,14.2,1111122 
COMPS,ioos:station:USF.COMPS:ANM:1,2010-02-01T14:36:00Z,27.5400,-82.7400,14.18,1111122 
COMPS,ioos:station:USF.COMPS:ANM:1,2010-02-01T14:42:00Z,27.5400,-82.7400,14.2,1111122 
COMPS,ioos:station:USF.COMPS:ANM:1,2010-02-01T14:48:00Z,27.5400,-82.7400,14.25,1111122 
COMPS,ioos:station:USF.COMPS:ANM:1,2010-02-01T14:54:00Z,27.5400,-82.7400,14.28,1111122 
COMPS,ioos:station:USF.COMPS:ANM:1,2010-02-01T15:00:00Z,27.5400,-82.7400,14.36,1111122 
COMPS,ioos:station:USF.COMPS:ANM:1,2010-02-01T15:06:00Z,27.5400,-82.7400,14.42,1111122 
COMPS,ioos:station:USF.COMPS:ANM:1,2010-02-01T15:12:00Z,27.5400,-82.7400,14.46,1111122 
COMPS,ioos:station:USF.COMPS:ANM:1,2010-02-01T15:18:00Z,27.5400,-82.7400,14.57,1111122 
COMPS,ioos:station:USF.COMPS:ANM:1,2010-02-01T15:24:00Z,27.5400,-82.7400,14.68,1111122 
COMPS,ioos:station:USF.COMPS:ANM:1,2010-02-01T15:30:00Z,27.5400,-82.7400,14.66,1111122 
COMPS,ioos:station:USF.COMPS:ANM:1,2010-02-01T15:36:00Z,27.5400,-82.7400,14.7,1111122 
COMPS,ioos:station:USF.COMPS:ANM:1,2010-02-01T15:42:00Z,27.5400,-82.7400,14.7,1111122 
COMPS,ioos:station:USF.COMPS:ANM:1,2010-02-01T15:48:00Z,27.5400,-82.7400,14.85,1111122 
COMPS,ioos:station:USF.COMPS:ANM:1,2010-02-01T15:54:00Z,27.5400,-82.7400,14.96,1111122 
COMPS,ioos:station:USF.COMPS:ANM:1,2010-02-01T16:00:00Z,27.5400,-82.7400,15.09,1111122 
COMPS,ioos:station:USF.COMPS:ANM:1,2010-02-01T16:06:00Z,27.5400,-82.7400,15.2,1111122 
COMPS,ioos:station:USF.COMPS:ANM:1,2010-02-01T16:12:00Z,27.5400,-82.7400,15.27,1111122 
COMPS,ioos:station:USF.COMPS:ANM:1,2010-02-01T16:18:00Z,27.5400,-82.7400,15.38,1111122 
COMPS,ioos:station:USF.COMPS:ANM:1,2010-02-01T16:24:00Z,27.5400,-82.7400,15.5,1111122 
COMPS,ioos:station:USF.COMPS:ANM:1,2010-02-01T16:30:00Z,27.5400,-82.7400,15.6,1111122 
COMPS,ioos:station:USF.COMPS:ANM:1,2010-02-01T16:36:00Z,27.5400,-82.7400,15.65,1111122 
COMPS,ioos:station:USF.COMPS:ANM:1,2010-02-01T16:42:00Z,27.5400,-82.7400,15.74,1111122 
COMPS,ioos:station:USF.COMPS:ANM:1,2010-02-01T16:48:00Z,27.5400,-82.7400,15.79,1111122 
COMPS,ioos:station:USF.COMPS:ANM:1,2010-02-01T16:54:00Z,27.5400,-82.7400,15.87,1111122 
COMPS,ioos:station:USF.COMPS:ANM:1,2010-02-01T17:00:00Z,27.5400,-82.7400,15.87,1111122 
COMPS,ioos:station:USF.COMPS:ANM:1,2010-02-01T17:06:00Z,27.5400,-82.7400,16.02,1111122 
COMPS,ioos:station:USF.COMPS:ANM:1,2010-02-01T17:12:00Z,27.5400,-82.7400,16.17,1111122 
COMPS,ioos:station:USF.COMPS:ANM:1,2010-02-01T17:18:00Z,27.5400,-82.7400,16.28,1111122 
COMPS,ioos:station:USF.COMPS:ANM:1,2010-02-01T17:24:00Z,27.5400,-82.7400,16.28,1111122 
COMPS,ioos:station:USF.COMPS:ANM:1,2010-02-01T17:30:00Z,27.5400,-82.7400,16.3,1111122 
COMPS,ioos:station:USF.COMPS:ANM:1,2010-02-01T17:36:00Z,27.5400,-82.7400,16.4,1111122 
COMPS,ioos:station:USF.COMPS:ANM:1,2010-02-01T17:42:00Z,27.5400,-82.7400,16.41,1111122 
COMPS,ioos:station:USF.COMPS:ANM:1,2010-02-01T17:48:00Z,27.5400,-82.7400,16.46,1111122 
COMPS,ioos:station:USF.COMPS:ANM:1,2010-02-01T17:54:00Z,27.5400,-82.7400,16.55,1111122 
COMPS,ioos:station:USF.COMPS:ANM:1,2010-02-01T18:00:00Z,27.5400,-82.7400,16.55,1111122 
COMPS,ioos:station:USF.COMPS:ANM:1,2010-02-01T18:06:00Z,27.5400,-82.7400,16.55,1111122 
COMPS,ioos:station:USF.COMPS:ANM:1,2010-02-01T18:12:00Z,27.5400,-82.7400,16.55,1111122 
COMPS,ioos:station:USF.COMPS:ANM:1,2010-02-01T18:18:00Z,27.5400,-82.7400,16.55,1111122 
COMPS,ioos:station:USF.COMPS:ANM:1,2010-02-01T18:24:00Z,27.5400,-82.7400,16.55,1111122 
COMPS,ioos:station:USF.COMPS:ANM:1,2010-02-01T18:30:00Z,27.5400,-82.7400,16.54,1111122 
COMPS,ioos:station:USF.COMPS:ANM:1,2010-02-01T18:36:00Z,27.5400,-82.7400,16.53,1111122 
COMPS,ioos:station:USF.COMPS:ANM:1,2010-02-01T18:42:00Z,27.5400,-82.7400,16.51,1111122 
COMPS,ioos:station:USF.COMPS:ANM:1,2010-02-01T18:48:00Z,27.5400,-82.7400,16.41,1111122 
COMPS,ioos:station:USF.COMPS:ANM:1,2010-02-01T18:54:00Z,27.5400,-82.7400,16.41,1111122 
COMPS,ioos:station:USF.COMPS:ANM:1,2010-02-01T19:00:00Z,27.5400,-82.7400,16.44,1111122 
COMPS,ioos:station:USF.COMPS:ANM:1,2010-02-01T19:06:00Z,27.5400,-82.7400,16.53,1111122 
COMPS,ioos:station:USF.COMPS:ANM:1,2010-02-01T19:12:00Z,27.5400,-82.7400,16.52,1111122 
COMPS,ioos:station:USF.COMPS:ANM:1,2010-02-01T19:18:00Z,27.5400,-82.7400,16.53,1111122 
COMPS,ioos:station:USF.COMPS:ANM:1,2010-02-01T19:24:00Z,27.5400,-82.7400,16.53,1111122 
COMPS,ioos:station:USF.COMPS:ANM:1,2010-02-01T19:30:00Z,27.5400,-82.7400,16.55,1111122 
COMPS,ioos:station:USF.COMPS:ANM:1,2010-02-01T19:36:00Z,27.5400,-82.7400,16.55,1111122 
COMPS,ioos:station:USF.COMPS:ANM:1,2010-02-01T19:42:00Z,27.5400,-82.7400,16.64,1111122 
COMPS,ioos:station:USF.COMPS:ANM:1,2010-02-01T19:48:00Z,27.5400,-82.7400,16.66,1111122 
COMPS,ioos:station:USF.COMPS:ANM:1,2010-02-01T19:54:00Z,27.5400,-82.7400,16.66,1111122 
COMPS,ioos:station:USF.COMPS:ANM:1,2010-02-01T20:00:00Z,27.5400,-82.7400,16.7,1111122 
COMPS,ioos:station:USF.COMPS:ANM:1,2010-02-01T20:06:00Z,27.5400,-82.7400,16.8,1111122 
COMPS,ioos:station:USF.COMPS:ANM:1,2010-02-01T20:12:00Z,27.5400,-82.7400,16.8,1111122 
COMPS,ioos:station:USF.COMPS:ANM:1,2010-02-01T20:18:00Z,27.5400,-82.7400,16.71,1111122 
COMPS,ioos:station:USF.COMPS:ANM:1,2010-02-01T20:24:00Z,27.5400,-82.7400,16.68,1111122 
COMPS,ioos:station:USF.COMPS:ANM:1,2010-02-01T20:30:00Z,27.5400,-82.7400,16.8,1111122 
COMPS,ioos:station:USF.COMPS:ANM:1,2010-02-01T20:36:00Z,27.5400,-82.7400,16.81,1111122 
COMPS,ioos:station:USF.COMPS:ANM:1,2010-02-01T20:42:00Z,27.5400,-82.7400,16.92,1111122 
COMPS,ioos:station:USF.COMPS:ANM:1,2010-02-01T20:48:00Z,27.5400,-82.7400,16.92,1111122 
COMPS,ioos:station:USF.COMPS:ANM:1,2010-02-01T20:54:00Z,27.5400,-82.7400,16.81,1111122 
COMPS,ioos:station:USF.COMPS:ANM:1,2010-02-01T21:00:00Z,27.5400,-82.7400,16.8,1111122 
COMPS,ioos:station:USF.COMPS:ANM:1,2010-02-01T21:06:00Z,27.5400,-82.7400,16.83,1111122 
COMPS,ioos:station:USF.COMPS:ANM:1,2010-02-01T21:12:00Z,27.5400,-82.7400,17.03,1111122 
COMPS,ioos:station:USF.COMPS:ANM:1,2010-02-01T21:18:00Z,27.5400,-82.7400,17.07,1111122 
COMPS,ioos:station:USF.COMPS:ANM:1,2010-02-01T21:24:00Z,27.5400,-82.7400,17.09,1111122 
COMPS,ioos:station:USF.COMPS:ANM:1,2010-02-01T21:30:00Z,27.5400,-82.7400,17.09,1111122 
COMPS,ioos:station:USF.COMPS:ANM:1,2010-02-01T21:36:00Z,27.5400,-82.7400,17.09,1111122 
COMPS,ioos:station:USF.COMPS:ANM:1,2010-02-01T21:42:00Z,27.5400,-82.7400,17.08,1111122 
COMPS,ioos:station:USF.COMPS:ANM:1,2010-02-01T21:48:00Z,27.5400,-82.7400,17.04,1111122 
COMPS,ioos:station:USF.COMPS:ANM:1,2010-02-01T21:54:00Z,27.5400,-82.7400,17.04,1111122 
COMPS,ioos:station:USF.COMPS:ANM:1,2010-02-01T22:00:00Z,27.5400,-82.7400,16.95,1111122 
COMPS,ioos:station:USF.COMPS:ANM:1,2010-02-01T22:06:00Z,27.5400,-82.7400,16.94,1111122 
COMPS,ioos:station:USF.COMPS:ANM:1,2010-02-01T22:12:00Z,27.5400,-82.7400,17.06,1111122 
COMPS,ioos:station:USF.COMPS:ANM:1,2010-02-01T22:18:00Z,27.5400,-82.7400,17.04,1111122 
COMPS,ioos:station:USF.COMPS:ANM:1,2010-02-01T22:24:00Z,27.5400,-82.7400,17.06,1111122 
COMPS,ioos:station:USF.COMPS:ANM:1,2010-02-01T22:30:00Z,27.5400,-82.7400,17.06,1111122 
COMPS,ioos:station:USF.COMPS:ANM:1,2010-02-01T22:36:00Z,27.5400,-82.7400,17.11,1111122 
COMPS,ioos:station:USF.COMPS:ANM:1,2010-02-01T22:42:00Z,27.5400,-82.7400,17.07,1111122 
COMPS,ioos:station:USF.COMPS:ANM:1,2010-02-01T22:48:00Z,27.5400,-82.7400,17.04,1111122 
COMPS,ioos:station:USF.COMPS:ANM:1,2010-02-01T22:54:00Z,27.5400,-82.7400,16.94,1111122 
COMPS,ioos:station:USF.COMPS:ANM:1,2010-02-01T23:00:00Z,27.5400,-82.7400,16.93,1111122 
COMPS,ioos:station:USF.COMPS:ANM:1,2010-02-01T23:06:00Z,27.5400,-82.7400,16.93,1111122 
COMPS,ioos:station:USF.COMPS:ANM:1,2010-02-01T23:12:00Z,27.5400,-82.7400,16.93,1111122 
COMPS,ioos:station:USF.COMPS:ANM:1,2010-02-01T23:18:00Z,27.5400,-82.7400,16.93,1111122 
COMPS,ioos:station:USF.COMPS:ANM:1,2010-02-01T23:24:00Z,27.5400,-82.7400,16.84,1111122 
COMPS,ioos:station:USF.COMPS:ANM:1,2010-02-01T23:30:00Z,27.5400,-82.7400,16.8,1111122 
COMPS,ioos:station:USF.COMPS:ANM:1,2010-02-01T23:36:00Z,27.5400,-82.7400,16.8,1111122 
COMPS,ioos:station:USF.COMPS:ANM:1,2010-02-01T23:42:00Z,27.5400,-82.7400,16.84,1111122 
COMPS,ioos:station:USF.COMPS:ANM:1,2010-02-01T23:48:00Z,27.5400,-82.7400,16.93,1111122 
COMPS,ioos:station:USF.COMPS:ANM:1,2010-02-01T23:54:00Z,27.5400,-82.7400,16.98,1111122 
COMPS,ioos:station:USF.COMPS:ANM:1,2010-02-02T00:00:00Z,27.5400,-82.7400,17.07,1111122 
COMPS,ioos:station:USF.COMPS:ANM:1,2010-02-02T00:06:00Z,27.5400,-82.7400,17.07,1111122 
COMPS,ioos:station:USF.COMPS:ANM:1,2010-02-02T00:12:00Z,27.5400,-82.7400,17.11,1111122 
COMPS,ioos:station:USF.COMPS:ANM:1,2010-02-02T00:18:00Z,27.5400,-82.7400,17.19,1111122 
COMPS,ioos:station:USF.COMPS:ANM:1,2010-02-02T00:24:00Z,27.5400,-82.7400,17.2,1111122 
COMPS,ioos:station:USF.COMPS:ANM:1,2010-02-02T00:30:00Z,27.5400,-82.7400,17.2,1111122 
COMPS,ioos:station:USF.COMPS:ANM:1,2010-02-02T00:36:00Z,27.5400,-82.7400,17.2,1111122 
COMPS,ioos:station:USF.COMPS:ANM:1,2010-02-02T00:42:00Z,27.5400,-82.7400,17.2,1111122 
COMPS,ioos:station:USF.COMPS:ANM:1,2010-02-02T00:48:00Z,27.5400,-82.7400,17.2,1111122 
COMPS,ioos:station:USF.COMPS:ANM:1,2010-02-02T00:54:00Z,27.5400,-82.7400,17.19,1111122 
COMPS,ioos:station:USF.COMPS:ANM:1,2010-02-02T01:00:00Z,27.5400,-82.7400,17.15,1111122 
COMPS,ioos:station:USF.COMPS:ANM:1,2010-02-02T01:06:00Z,27.5400,-82.7400,17.07,1111122 
COMPS,ioos:station:USF.COMPS:ANM:1,2010-02-02T01:12:00Z,27.5400,-82.7400,17.07,1111122 
COMPS,ioos:station:USF.COMPS:ANM:1,2010-02-02T01:18:00Z,27.5400,-82.7400,17.02,1111122 
COMPS,ioos:station:USF.COMPS:ANM:1,2010-02-02T01:24:00Z,27.5400,-82.7400,16.94,1111122 
COMPS,ioos:station:USF.COMPS:ANM:1,2010-02-02T01:30:00Z,27.5400,-82.7400,16.98,1111122 
COMPS,ioos:station:USF.COMPS:ANM:1,2010-02-02T01:36:00Z,27.5400,-82.7400,16.94,1111122 
COMPS,ioos:station:USF.COMPS:ANM:1,2010-02-02T01:42:00Z,27.5400,-82.7400,16.94,1111122 
COMPS,ioos:station:USF.COMPS:ANM:1,2010-02-02T01:48:00Z,27.5400,-82.7400,16.93,1111122 
COMPS,ioos:station:USF.COMPS:ANM:1,2010-02-02T01:54:00Z,27.5400,-82.7400,16.93,1111122 
COMPS,ioos:station:USF.COMPS:ANM:1,2010-02-02T02:00:00Z,27.5400,-82.7400,16.93,1111122 
COMPS,ioos:station:USF.COMPS:ANM:1,2010-02-02T02:06:00Z,27.5400,-82.7400,16.93,1111122 
COMPS,ioos:station:USF.COMPS:ANM:1,2010-02-02T02:12:00Z,27.5400,-82.7400,16.93,1111122 
COMPS,ioos:station:USF.COMPS:ANM:1,2010-02-02T02:18:00Z,27.5400,-82.7400,16.93,1111122 
COMPS,ioos:station:USF.COMPS:ANM:1,2010-02-02T02:24:00Z,27.5400,-82.7400,16.93,1111122 
COMPS,ioos:station:USF.COMPS:ANM:1,2010-02-02T02:30:00Z,27.5400,-82.7400,16.93,1111122 
COMPS,ioos:station:USF.COMPS:ANM:1,2010-02-02T02:36:00Z,27.5400,-82.7400,16.93,1111122 
COMPS,ioos:station:USF.COMPS:ANM:1,2010-02-02T02:42:00Z,27.5400,-82.7400,16.93,1111122 
COMPS,ioos:station:USF.COMPS:ANM:1,2010-02-02T02:48:00Z,27.5400,-82.7400,16.93,1111122 
COMPS,ioos:station:USF.COMPS:ANM:1,2010-02-02T02:54:00Z,27.5400,-82.7400,16.93,1111122 
COMPS,ioos:station:USF.COMPS:ANM:1,2010-02-02T03:00:00Z,27.5400,-82.7400,16.92,1111122 
COMPS,ioos:station:USF.COMPS:ANM:1,2010-02-02T03:06:00Z,27.5400,-82.7400,16.81,1111122 